Regional Weather Roundup
Issued by NWS

Current Version | Previous Version | Text Only | Print | Product List | Glossary On
Versions: 1 2 3 4 5 6 7 8 9 10 11 12 13 14 15 16 17 18 19 20 21 22 23 24 25 26 27
000
ASUS44 KLIX 280811
RWRLA
LOUISIANA WEATHER ROUNDUP
NATIONAL WEATHER SERVICE NEW ORLEANS LA
300 AM CDT THU JUL 28 2016

NOTE: "FAIR" INDICATES FEW OR NO CLOUDS BELOW 12,000 FEET WITH NO
      SIGNIFICANT WEATHER AND/OR OBSTRUCTIONS TO VISIBILITY.
      SKY/WX - SKY CONDITION AND SIGNIFICANT WEATHER.
      TMP - AIR TEMPERATURE.    DP   - DEWPOINT TEMPERATURE.
      RH  - RELATIVE HUMIDITY.  PRES - PRESSURE.
      HX  - HEAT INDEX.         WCI  - WIND CHILL INDEX.

*  THESE STATIONS ARE NOT NWS OR FAA STATIONS AND ARE NOT UNDER
   NWS QUALITY CONTROL.

LAZ040-048-061>063-065-066-069-280900-
SOUTHEAST LOUISIANA

CITY           SKY/WX    TMP DP  RH WIND       PRES   REMARKS
N.O. AUDUBON     N/A     79  76  90 MISG        N/A
N.O. INTL ARPT PTCLDY    79  75  87 CALM      30.01F
N.O. LAKEFRONT CLEAR     78  73  84 S5        30.02S
N.O. DOWNTOWN* FAIR      80  76  87 S6        30.02S
RESERVE*       FAIR      75  73  94 CALM      30.01F
SLIDELL        CLEAR     73  72  96 CALM      30.01F
BATON ROUGE    CLEAR     74  71  91 CALM      30.01S
BOOTHVILLE     CLEAR     80  77  90 SE3       30.02F
BELLE CHASSE   CLEAR     75  74  96 CALM      30.01S
BOGALUSA*      FAIR      73  70  89 CALM      30.03F
GALLIANO*      SUNNY     68  68 100 CALM      30.01S FOG
NEW ROADS*     FAIR      73  72  97 CALM      30.01S
GONZALES*      FAIR      72  72 100 CALM      30.01S
HAMMOND*       PTCLDY    72  70  94 CALM      30.02S
HOUMA*         CLEAR     73  72  99 CALM      30.01F
PORT FOURCHON* SUNNY     82  77  83 S6        30.01F

$$

LAZ041-044-053-054-280900-
SOUTHWEST LOUISIANA

CITY           SKY/WX    TMP DP  RH WIND       PRES   REMARKS
LAKE CHARLES   MOCLDY    79  77  94 SE3       29.98S
LAFAYETTE      CLOUDY    76  75  97 CALM      30.01S
PATTERSON      PTCLDY    75  74  96 CALM      30.02S
SALT POINT       N/A     78  76  93 CALM      29.99S
NEW IBERIA     CLOUDY    77  75  93 CALM      30.01S
CHENAULT AIRPK MOCLDY    78  77  95 CALM      29.99R

$$

LAZ027-028-280900-
CENTRAL LOUISIANA

CITY           SKY/WX    TMP DP  RH WIND       PRES   REMARKS
FORT POLK      CLOUDY    76  74  93 S6        29.98F
ALEXANDRIA INT CLOUDY    75  74  96 SE6       29.97S
ALEXANDRIA     CLOUDY    75  74  96 S3        29.99S

$$

LAZ001-002-280900-
NORTHWEST LOUISIANA

CITY           SKY/WX    TMP DP  RH WIND       PRES   REMARKS
SHREVEPORT     CLOUDY    77  75  93 SE3       29.95R
BARKSDALE AFB  CLOUDY    78  77  97 S3        29.95S
DTN SHREVEPORT CLOUDY    78  74  87 S3        29.95S

$$

LAZ014-016-280900-
NORTHEAST LOUISIANA

CITY           SKY/WX    TMP DP  RH WIND       PRES   REMARKS
MONROE         CLOUDY    77  75  93 S6        29.98R
TALLULAH       CLOUDY    77  74  90 S3        29.98S

$$





USA.gov is the U.S. government's official web portal to all federal, state and local government web resources and services.